When you browse on this site, cookies collect data to enhance your experience and personalize the content and advertising you see.
Visit our Privacy Policy to learn more. By continuing to use the site, you agree to this use of cookies and data.
  • In Hungary
  • List of Countries
  • For 7 days
  • Water Temperature
  • Weather Map
  • News
  • Weather Widgets
  • user-avatar
    Login

    Hourly Weather Suleja

    Today, 22 August, Thursday

    Time Temperature Precipitation Wind Pressure Humidity
    00:00 +22°C° 0 mm 0 mps 723 mmHg 95%
    01:00 +21°C° 0 mm 0 mps 722 mmHg 94%
    02:00 +21°C° 0 mm 0 mps 722 mmHg 94%
    03:00 +21°C° 0 mm 0 mps 722 mmHg 94%
    04:00 +21°C° 0.1 mm 0 mps 722 mmHg 94%
    05:00 +21°C° 0.1 mm 0 mps 723 mmHg 94%
    06:00 +22°C° 0.1 mm 0 mps 723 mmHg 93%
    07:00 +25°C° 0.4 mm 1 mps 723 mmHg 90%
    08:00 +26°C° 0.4 mm 1 mps 723 mmHg 87%
    09:00 +27°C° 0.4 mm 1 mps 723 mmHg 83%
    10:00 +28°C° 1 mm 2 mps 723 mmHg 82%
    11:00 +28°C° 1 mm 2 mps 723 mmHg 80%
    12:00 +29°C° 1 mm 2 mps 722 mmHg 78%
    13:00 +29°C° 1.2 mm 2 mps 722 mmHg 80%
    14:00 +29°C° 1.2 mm 2 mps 721 mmHg 81%
    15:00 +29°C° 1.2 mm 2 mps 720 mmHg 82%
    16:00 +27°C° 1.5 mm 2 mps 721 mmHg 86%
    17:00 +26°C° 1.5 mm 2 mps 721 mmHg 89%
    18:00 +25°C° 1.5 mm 1 mps 722 mmHg 92%
    19:00 +24°C° 0.1 mm 1 mps 722 mmHg 93%
    20:00 +24°C° 0.1 mm 1 mps 723 mmHg 93%
    21:00 +24°C° 0.1 mm 1 mps 723 mmHg 94%
    22:00 +24°C° 0 mm 1 mps 723 mmHg 94%
    23:00 +23°C° 0 mm 1 mps 723 mmHg 94%

    Tomorrow, 23 August, Friday

    Time Temperature Precipitation Wind Pressure Humidity
    00:00 +23°C° 0 mm 1 mps 723 mmHg 95%
    01:00 +23°C° 0 mm 1 mps 723 mmHg 96%
    02:00 +23°C° 0 mm 1 mps 722 mmHg 96%
    03:00 +23°C° 0 mm 1 mps 722 mmHg 97%
    04:00 +23°C° 0 mm 1 mps 722 mmHg 97%
    05:00 +23°C° 0 mm 1 mps 723 mmHg 97%
    06:00 +23°C° 0 mm 1 mps 724 mmHg 98%
    07:00 +24°C° 0.5 mm 1 mps 724 mmHg 96%
    08:00 +24°C° 0.5 mm 2 mps 724 mmHg 94%
    09:00 +25°C° 0.5 mm 2 mps 725 mmHg 93%
    10:00 +25°C° 1.6 mm 3 mps 724 mmHg 92%
    11:00 +25°C° 1.6 mm 3 mps 724 mmHg 92%
    12:00 +26°C° 1.6 mm 3 mps 723 mmHg 92%
    13:00 +26°C° 1.7 mm 3 mps 723 mmHg 92%
    14:00 +26°C° 1.7 mm 3 mps 722 mmHg 91%
    15:00 +26°C° 1.7 mm 3 mps 722 mmHg 91%
    16:00 +25°C° 0.6 mm 3 mps 722 mmHg 93%
    17:00 +24°C° 0.6 mm 3 mps 722 mmHg 94%
    18:00 +24°C° 0.6 mm 2 mps 723 mmHg 96%
    19:00 +23°C° 0.6 mm 2 mps 723 mmHg 97%
    20:00 +23°C° 0.6 mm 2 mps 724 mmHg 97%
    21:00 +23°C° 0.6 mm 2 mps 724 mmHg 98%
    22:00 +23°C° 1.6 mm 2 mps 724 mmHg 98%
    23:00 +23°C° 1.6 mm 2 mps 724 mmHg 98%

    Day after tomorrow, 24 August, Saturday

    Time Temperature Precipitation Wind Pressure Humidity
    00:00 +23°C° 1.6 mm 2 mps 724 mmHg 98%
    01:00 +21°C° 1.5 mm 2 mps 724 mmHg 98%
    02:00 +21°C° 1.5 mm 2 mps 724 mmHg 98%
    03:00 +21°C° 1.5 mm 2 mps 723 mmHg 98%
    04:00 +21°C° 0.4 mm 2 mps 723 mmHg 98%
    05:00 +21°C° 0.4 mm 2 mps 724 mmHg 98%
    06:00 +21°C° 0.4 mm 2 mps 724 mmHg 98%
    07:00 +23°C° 0.2 mm 2 mps 724 mmHg 97%
    08:00 +23°C° 0.2 mm 2 mps 725 mmHg 95%
    09:00 +23°C° 0.2 mm 2 mps 725 mmHg 94%
    10:00 +24°C° 0.5 mm 2 mps 725 mmHg 94%
    11:00 +24°C° 0.5 mm 2 mps 725 mmHg 94%
    12:00 +24°C° 0.5 mm 2 mps 724 mmHg 94%
    13:00 +23°C° 1.4 mm 2 mps 724 mmHg 95%
    14:00 +23°C° 1.4 mm 2 mps 724 mmHg 96%
    15:00 +21°C° 1.4 mm 2 mps 723 mmHg 98%
    16:00 +21°C° 1 mm 2 mps 723 mmHg 97%
    17:00 +21°C° 1 mm 2 mps 724 mmHg 97%
    18:00 +20°C° 1 mm 2 mps 724 mmHg 97%
    19:00 +21°C° 0.2 mm 1 mps 724 mmHg 97%
    20:00 +21°C° 0.2 mm 1 mps 725 mmHg 97%
    21:00 +21°C° 0.2 mm 1 mps 725 mmHg 96%
    22:00 +21°C° 0.3 mm 1 mps 725 mmHg 97%
    23:00 +21°C° 0.3 mm 1 mps 725 mmHg 97%

    25 August, Sunday

    Time Temperature Precipitation Wind Pressure Humidity
    00:00 +21°C° 0.3 mm 1 mps 725 mmHg 98%
    01:00 +21°C° 0.1 mm 1 mps 725 mmHg 98%
    02:00 +22°C° 0.1 mm 1 mps 724 mmHg 97%
    03:00 +22°C° 0.1 mm 1 mps 724 mmHg 97%
    04:00 +22°C° 0 mm 1 mps 724 mmHg 97%
    05:00 +20°C° 0 mm 0 mps 724 mmHg 97%
    06:00 +20°C° 0 mm 0 mps 724 mmHg 97%
    07:00 +20°C° 0 mm 0 mps 725 mmHg 96%
    08:00 +21°C° 0 mm 0 mps 725 mmHg 94%
    09:00 +21°C° 0 mm 0 mps 726 mmHg 93%
    10:00 +21°C° 0 mm 0 mps 725 mmHg 91%
    11:00 +22°C° 0 mm 0 mps 725 mmHg 90%
    12:00 +24°C° 0 mm 1 mps 724 mmHg 88%
    13:00 +22°C° 0 mm 0 mps 724 mmHg 88%
    14:00 +22°C° 0 mm 0 mps 724 mmHg 89%
    15:00 +22°C° 0 mm 0 mps 723 mmHg 89%
    16:00 +21°C° 0 mm 0 mps 723 mmHg 90%
    17:00 +21°C° 0 mm 0 mps 723 mmHg 91%
    18:00 +23°C° 0 mm 1 mps 724 mmHg 92%
    19:00 +21°C° 0 mm 0 mps 724 mmHg 91%
    20:00 +21°C° 0 mm 0 mps 724 mmHg 90%
    21:00 +21°C° 0 mm 0 mps 725 mmHg 89%
    22:00 +20°C° 0 mm 0 mps 725 mmHg 90%
    23:00 +20°C° 0 mm 0 mps 724 mmHg 90%

    26 August, Monday

    Time Temperature Precipitation Wind Pressure Humidity
    00:00 +20°C° 0 mm 0 mps 724 mmHg 90%
    01:00 +20°C° 0 mm 0 mps 724 mmHg 91%
    02:00 +20°C° 0 mm 0 mps 723 mmHg 92%
    03:00 +20°C° 0 mm 0 mps 723 mmHg 93%
    04:00 +20°C° 0 mm 0 mps 723 mmHg 93%
    05:00 +20°C° 0 mm 0 mps 724 mmHg 94%
    06:00 +20°C° 0 mm 0 mps 724 mmHg 94%
    07:00 +21°C° 0 mm 0 mps 724 mmHg 92%
    08:00 +22°C° 0 mm 0 mps 725 mmHg 90%
    09:00 +23°C° 0 mm 0 mps 725 mmHg 88%
    10:00 +26°C° 0.3 mm 1 mps 725 mmHg 83%
    11:00 +27°C° 0.3 mm 1 mps 724 mmHg 78%
    12:00 +29°C° 0.3 mm 2 mps 723 mmHg 74%
    13:00 +28°C° 0.8 mm 2 mps 723 mmHg 76%
    14:00 +28°C° 0.8 mm 2 mps 722 mmHg 79%
    15:00 +28°C° 0.8 mm 2 mps 722 mmHg 82%
    16:00 +27°C° 0.6 mm 2 mps 722 mmHg 85%
    17:00 +26°C° 0.6 mm 1 mps 722 mmHg 89%
    18:00 +25°C° 0.6 mm 1 mps 722 mmHg 92%
    19:00 +24°C° 2.4 mm 1 mps 723 mmHg 93%
    20:00 +24°C° 2.4 mm 1 mps 723 mmHg 94%
    21:00 +24°C° 2.4 mm 2 mps 724 mmHg 94%
    22:00 +23°C° 1.2 mm 1 mps 724 mmHg 95%
    23:00 +23°C° 1.2 mm 1 mps 723 mmHg 95%

    27 August, Tuesday

    Time Temperature Precipitation Wind Pressure Humidity
    00:00 +23°C° 1.2 mm 1 mps 723 mmHg 96%
    01:00 +23°C° 1.1 mm 1 mps 723 mmHg 97%
    02:00 +23°C° 1.1 mm 1 mps 723 mmHg 97%
    03:00 +23°C° 1.1 mm 1 mps 723 mmHg 98%
    04:00 +23°C° 0.8 mm 1 mps 723 mmHg 98%
    05:00 +23°C° 0.8 mm 1 mps 723 mmHg 98%
    06:00 +21°C° 0.8 mm 0 mps 724 mmHg 98%
    07:00 +23°C° 0.4 mm 1 mps 724 mmHg 97%
    08:00 +24°C° 0.4 mm 1 mps 725 mmHg 96%
    09:00 +24°C° 0.4 mm 2 mps 725 mmHg 95%
    10:00 +24°C° 0.5 mm 2 mps 725 mmHg 95%
    11:00 +24°C° 0.5 mm 2 mps 724 mmHg 95%
    12:00 +24°C° 0.5 mm 2 mps 724 mmHg 95%
    13:00 +24°C° 0.2 mm 2 mps 723 mmHg 94%
    14:00 +24°C° 0.2 mm 2 mps 722 mmHg 94%
    15:00 +24°C° 0.2 mm 2 mps 722 mmHg 94%
    16:00 +23°C° 0 mm 2 mps 722 mmHg 95%
    17:00 +23°C° 0 mm 1 mps 722 mmHg 95%
    18:00 +23°C° 0 mm 1 mps 722 mmHg 96%
    19:00 +22°C° 0 mm 1 mps 723 mmHg 96%
    20:00 +20°C° 0 mm 0 mps 723 mmHg 96%
    21:00 +20°C° 0 mm 0 mps 724 mmHg 96%
    22:00 +20°C° 0 mm 0 mps 724 mmHg 96%
    23:00 +20°C° 0 mm 0 mps 724 mmHg 95%
    Show more